{"data":{"norad_id":61642,"intl_designator":"2024-191X","name":"STARLINK-32264","alt_names":[],"object_type":"PAYLOAD","status":"ACTIVE","operator":null,"country":"US","launch_date":"2024-10-23","launch_site_code":"AFETR","launch_vehicle":null,"mission":null,"orbit_class":"UNKNOWN","rcs_meters":null,"size_class":null,"mass_kg":null,"dimensions":null,"purposes":["comms"],"wikipedia_slug":null,"has_3d_model":false,"image_url":null,"decayed_at":null,"tle_current":{"epoch":"2026-05-25T04:00:03.998880Z","epoch_age_seconds":71011,"freshness":"FRESH","line1":"1 61642U 24191X   26145.16671295  .00146502  00000+0  26338-2 0  9992","line2":"2 61642  42.9943  77.0704 0017342 193.6930 256.4672 15.48450187  5948","mean_motion":15.48450187,"eccentricity":0.0017342,"inclination_deg":42.9943,"raan_deg":77.0704,"arg_perigee_deg":193.693,"mean_anomaly_deg":256.4672,"bstar":0.0026338,"rev_number":594,"period_min":92.996210797706,"perigee_km":409.46769588342,"apogee_km":433.05072169398,"semimajor_km":6799.3962087887,"source":"CELESTRAK","updated_at":"2026-05-25T13:38:19.411170Z"}}}